Volver al catálogo

RAPIDEYE 1

ActivoCienciaSSO
NORAD 33314·PAYLOAD·🇩🇪 Germany

Lanzado Aug 29, 2008 desde Baikonur Cosmodrome

Loading…

Próximos Pases (próximas 24 horas)

TLE

ActualizadoSource: Space-Track

Época: Sep 14, 2026, 12:36 UTC

1 33314U 08040C   26257.52555234  .00000805  00000-0  62782-4 0  9991
2 33314  97.4072 281.6922 0025486 232.4618 127.4293 15.03640968979089

Sigue RAPIDEYE 1 en tiempo real con AllMySat

Download on the App Store